DW7229 Weather Reports


time (UTC)temp
F
wind
direction
speed
knots
gust
knots
rain 1hr
in
rain 24hr
in
rain mn
in
humidity
%
barometer
mb
20260903171032 70 0.0 0.0 0.00 0.00 0.00 81 1012.9
20260903170017 69 0.0 0.0 0.00 0.00 0.00 82 1012.9
20260903165020 68 0.0 0.0 0.00 0.00 0.00 83 1013.1
20260903164023 69 0.0 0.0 0.00 0.00 0.00 82 1013.1
20260903163027 69 0.0 0.0 0.00 0.00 0.00 83 1013.1
20260903162030 68 0.0 0.0 0.00 0.00 0.00 83 1013.1
20260903161015 68 0.0 0.0 0.00 0.00 0.00 83 1013.1
20260903160018 69 0.0 0.0 0.00 0.00 0.00 82 1013.3
20260903155022 69 0.0 0.0 0.00 0.00 0.00 82 1013.6
20260903154025 69 0.0 0.0 0.00 0.00 0.00 85 1013.7
20260903153022 68 0.0 0.0 0.00 0.00 0.00 86 1013.7
20260903152019 68 0.0 0.0 0.00 0.00 0.00 88 1013.8
20260903151017 68 0.0 0.0 0.00 0.00 0.00 88 1013.8
20260903150020 67 0.0 0.0 0.00 0.00 0.00 90 1014.0
20260903145023 66 0.0 0.0 0.00 0.00 0.00 90 1014.0
20260903144026 66 0.0 0.0 0.00 0.00 0.00 92 1013.9
20260903143030 66 0.0 0.0 0.00 0.00 0.00 92 1014.2
20260903142015 65 0.0 0.0 0.00 0.00 0.00 92 1014.4
20260903141018 65 0.0 0.0 0.00 0.00 0.00 94 1014.4
20260903140022 65 0.0 0.0 0.00 0.00 0.00 95 1014.3
20260903135025 65 0.0 0.0 0.00 0.00 0.00 95 1014.3
20260903134028 65 0.0 0.0 0.00 0.00 0.00 95 1014.2
20260903133032 64 0.0 0.0 0.00 0.00 0.00 95 1014.2
20260903132017 64 0.0 0.0 0.00 0.00 0.00 95 1014.4
20260903131020 64 0.0 0.0 0.00 0.00 0.00 95 1014.3
20260903130024 64 0.0 0.0 0.00 0.00 0.00 95 1014.4
20260903125027 64 0.0 0.0 0.00 0.00 0.00 95 1014.7
20260903124030 64 0.0 0.0 0.00 0.00 0.00 95 1014.8
20260903123015 63 0.0 0.0 0.00 0.00 0.00 95 1014.9
20260903122119 63 0.0 0.0 0.00 0.00 0.00 95 1014.9
20260903121022 63 0.0 0.0 0.00 0.00 0.00 95 1015.2
20260903120025 62 0.0 0.0 0.00 0.00 0.00 95 1015.2
20260903115023 62 0.0 0.0 0.00 0.00 0.00 95 1015.3
20260903114020 62 0.0 0.0 0.00 0.00 0.00 94 1015.2
20260903113017 62 0.0 0.0 0.00 0.00 0.00 93 1015.2
20260903112020 62 0.0 0.0 0.00 0.00 0.00 93 1015.2
20260903111023 62 0.0 0.0 0.00 0.00 0.00 92 1015.4
20260903110047 62 0.0 0.0 0.00 0.00 0.00 92 1015.5
20260903105110 62 0.0 0.0 0.00 0.00 0.00 91 1015.3
20260903104015 62 0.0 0.0 0.00 0.00 0.00 90 1015.1
20260903103059 62 0.0 0.0 0.00 0.00 0.00 90 1015.1
20260903102022 62 0.0 0.0 0.00 0.00 0.00 90 1015.1
20260903101026 62 0.0 0.0 0.00 0.00 0.00 88 1015.2
20260903100049 62 0.0 0.0 0.00 0.00 0.00 87 1015.4
20260903095032 62 0.0 0.0 0.00 0.00 0.00 87 1015.3
20260903094017 62 0.0 0.0 0.00 0.00 0.00 87 1015.6
20260903093021 62 0.0 0.0 0.00 0.00 0.00 86 1015.7
20260903092024 62 0.0 0.0 0.00 0.00 0.00 86 1015.8
20260903091028 62 0.0 0.0 0.00 0.00 0.00 86 1015.9
20260903090030 62 0.0 0.0 0.00 0.00 0.00 85 1015.7
20260903085016 63 0.0 0.0 0.00 0.00 0.00 84 1015.7
20260903084039 63 0.0 0.0 0.00 0.00 0.00 83 1015.9
20260903083023 63 0.0 0.0 0.00 0.00 0.00 82 1015.8
20260903082026 63 0.0 0.0 0.00 0.00 0.00 82 1015.5
20260903081023 63 0.0 0.0 0.00 0.00 0.00 82 1015.5
20260903080020 63 0.0 0.0 0.00 0.00 0.00 83 1015.9
20260903075018 63 0.0 0.0 0.00 0.00 0.00 83 1015.8
20260903074015 63 0.0 0.0 0.00 0.00 0.00 84 1015.9
20260903073025 63 0.0 0.0 0.00 0.00 0.00 85 1015.9
20260903072028 63 0.0 0.0 0.00 0.00 0.00 85 1015.9
20260903071051 63 0.0 0.0 0.00 0.00 0.00 86 1016.2
20260903070016 63 0.0 0.0 0.00 0.00 0.00 86 1016.5
20260903065040 63 0.0 0.0 0.00 0.00 0.00 86 1016.8
20260903064023 63 0.0 0.0 0.00 0.00 0.00 86 1017.3
20260903063026 63 0.0 0.0 0.00 0.00 0.00 86 1017.5
20260903062030 63 0.0 0.0 0.00 0.00 0.00 86 1017.7
20260903061015 63 0.0 0.0 0.00 0.00 0.00 86 1018.1
20260903060018 63 0.0 0.0 0.00 0.00 0.00 86 1018.2
20260903055021 63 0.0 0.0 0.00 0.00 0.00 86 1018.3
20260903054025 63 0.0 0.0 0.00 0.00 0.00 86 1018.3
20260903053028 63 0.0 0.0 0.00 0.00 0.00 86 1018.2
20260903052031 63 0.0 0.0 0.00 0.00 0.00 86 1018.1
20260903051017 63 0.0 0.0 0.00 0.00 0.00 86 1018.3
20260903050020 63 0.0 0.0 0.00 0.00 0.00 86 1018.4
20260903045023 63 0.0 0.0 0.00 0.00 0.00 86 1018.5
20260903044026 63 0.0 0.0 0.00 0.00 0.00 86 1018.5
20260903043024 63 0.0 0.0 0.00 0.00 0.00 86 1018.5
20260903042015 63 0.0 0.0 0.00 0.00 0.00 86 1018.5
20260903041018 63 0.0 0.0 0.00 0.00 0.00 86 1018.7
20260903040116 63 0.0 0.0 0.00 0.00 0.00 86 1018.8
20260903035025 63 0.0 0.0 0.00 0.00 0.00 86 1018.9
20260903034028 63 0.0 0.0 0.00 0.00 0.00 86 1019.2
20260903033031 63 0.0 0.0 0.00 0.00 0.00 86 1019.2
20260903032017 63 0.0 0.0 0.00 0.00 0.00 86 1019.1
20260903031020 64 0.0 0.0 0.00 0.00 0.00 86 1019.1
20260903030043 64 0.0 0.0 0.00 0.00 0.00 86 1019.3
20260903025027 64 0.0 0.0 0.00 0.00 0.00 86 1019.2
20260903024030 64 0.0 0.0 0.00 0.00 0.00 86 1019.3
20260903023035 64 0.0 0.0 0.00 0.00 0.00 86 1019.4
20260903022019 64 0.0 0.0 0.00 0.00 0.00 86 1019.5
20260903021022 64 0.0 0.0 0.00 9.90 0.00 86 1019.6
20260903020025 64 0.0 0.0 0.00 9.90 0.00 86 1019.8
20260903015028 64 0.0 0.0 0.00 9.90 0.00 86 1019.8
20260903014032 64 0.0 0.0 0.00 9.90 0.00 86 1019.3
20260903013017 64 0.0 0.0 0.00 9.90 0.00 85 1019.3
20260903012021 64 0.0 0.0 0.00 9.90 0.00 85 1019.5
20260903011044 64 0.0 0.0 0.00 9.90 0.00 83 1019.5
20260903010027 64 0.0 0.0 0.00 9.90 0.00 83 1019.5
20260903005024 64 0.0 0.0 0.00 9.90 0.00 82 1019.2
20260903004015 64 0.0 0.0 0.00 9.90 0.00 82 1019.6
20260903003019 65 0.0 0.0 0.00 9.90 0.00 82 1019.7
20260903002036 65 0.0 0.0 0.00 9.90 0.00 81 1019.6
20260903001025 65 0.0 0.0 0.00 9.90 0.00 81 1019.8
20260903000028 65 0.0 0.0 0.00 9.90 0.00 81 1020.0
20260902235032 65 0.0 0.0 0.00 9.90 0.00 81 1020.2
20260902234017 66 0.0 0.0 0.00 9.90 0.00 80 1020.4
20260902233020 66 0.0 0.0 0.00 9.90 0.00 79 1020.5
20260902232024 66 0.0 0.0 0.00 9.90 0.00 79 1020.6
20260902231027 66 0.0 0.0 0.00 9.90 0.00 78 1020.5
20260902230030 67 0.0 0.0 0.00 9.90 0.00 77 1020.7
20260902225016 67 0.0 0.0 0.00 9.90 0.00 77 1020.5
20260902224019 68 0.0 0.0 0.00 9.90 0.00 76 1020.8
20260902223042 68 0.0 0.0 0.00 9.90 0.00 76 1020.8
20260902222025 68 0.0 0.0 0.00 9.90 0.00 75 1020.6
20260902221029 69 0.0 0.0 0.00 9.90 0.00 74 1020.9
20260902220032 70 0.0 0.0 0.00 9.90 0.00 73 1021.0
20260902215017 71 0.0 0.0 0.00 9.90 0.00 72 1020.8
20260902214041 71 0.0 0.0 0.00 9.90 0.00 71 1020.7
20260902213024 72 0.0 0.0 0.00 9.90 0.00 70 1020.6
20260902212028 72 0.0 0.0 0.00 9.90 0.00 70 1020.4
20260902211025 72 0.0 0.0 0.00 9.90 0.00 69 1020.6
20260902210056 73 0.0 0.0 0.00 9.90 0.00 69 1020.5
20260902205059 73 0.0 0.0 0.00 9.90 0.00 69 1020.7
20260902204016 71 0.0 0.0 0.00 9.90 0.00 71 1020.9
20260902203106 72 0.0 0.0 0.00 9.90 0.00 70 1021.0
20260902202029 71 0.0 0.0 0.00 9.90 0.00 71 1021.0
20260902201032 70 0.0 0.0 0.00 9.90 0.00 73 1021.4
20260902200017 70 0.0 0.0 0.00 9.90 0.00 72 1021.4
20260902195041 70 0.0 0.0 0.00 9.90 0.00 72 1021.4
20260902194024 71 0.0 0.0 0.00 9.90 0.00 71 1021.5
20260902193027 72 0.0 0.0 0.00 9.90 0.00 70 1021.6
20260902192031 71 0.0 0.0 0.00 9.90 0.00 72 1021.7
20260902191016 71 0.0 0.0 0.00 9.90 0.00 71 1021.6
20260902190039 72 0.0 0.0 0.00 9.90 0.00 71 1021.3
20260902185023 72 0.0 0.0 0.00 9.90 0.00 71 1021.4
20260902184026 72 0.0 0.0 0.00 9.90 0.00 71 1021.4
20260902183029 71 0.0 0.0 0.00 9.90 0.00 72 1021.4
20260902182053 70 0.0 0.0 0.00 9.90 0.00 73 1021.4
20260902181018 70 0.0 0.0 0.00 9.90 0.00 73 1021.6
20260902180021 69 0.0 0.0 0.00 9.90 0.00 75 1021.6
20260902175045 70 0.0 0.0 0.00 9.90 0.00 75 1021.6
20260902174028 70 0.0 0.0 0.00 9.90 0.00 74 1021.7
20260902173025 70 0.0 0.0 0.00 9.90 0.00 74 1021.7
20260902172016 70 0.0 0.0 0.00 9.90 0.00 74 1021.8